Weather History for Billings, MT

Change the Weather History Date:

Friday, November 8, 2013

  Actual Average Record
Temperature  
Mean Temperature 45 °F 39 °F  
Max Temperature 51 °F 49 °F 73 °F (1999)
Min Temperature 38 °F 29 °F 2 °F (1966)
Degree Days  
Heating Degree Days 20 26  
Month to date heating degree days 202 194  
Since 1 July heating degree days 939 946  
Cooling Degree Days 0 0  
Month to date cooling degree days 0 0  
Year to date cooling degree days 840 636  
Moisture  
Dew Point 25 °F    
Average Humidity 51    
Maximum Humidity 70    
Minimum Humidity 32    
Precipitation  
Precipitation T in 0.02 in 0.31 in (2010)
Month to date precipitation 0.02 0.17  
Year to date precipitation 14.40 12.70  
Snow  
Snow 0.00 in 0.20 in 4.00 in (1947)
Month to date snowfall 0.2 1.4  
Since 1 July snowfall 5.3 6.6  
Since 1 September snowfall 5.3 6.6  
Snow Depth 0.00 in    
Sea Level Pressure  
Sea Level Pressure 29.85 in    
Wind  
Wind Speed 19 mph (WNW)    
Max Wind Speed 36 mph    
Max Gust Speed 48 mph    
Visibility 10 miles    
Events      
T = Trace of Precipitation, MM = Missing Value Source: NWS Daily Summary

Daily Weather History Graph

Daily Weather History Graph

Search for Another Location

Airport:

Trip Planner

Search our weather history database for the weather conditions in past years. The results will help you decide how hot, cold, wet, or windy it might be!

Date:

Astronomy

Nov. 08, 2013 Rise Set
Actual Time 7:04 AM MST 4:50 PM MST
Civil Twilight 6:32 AM MST 5:22 PM MST
Nautical Twilight 5:57 AM MST 5:57 PM MST
Astronomical Twilight 5:22 AM MST 6:32 PM MST
Moon 12:02 PM MST (11/8) 10:16 PM MST (11/8)
Length of Visible Light 10h 49m
Length of Day
9h 45m
Waxing Crescent, 34% of the Moon is Illuminated
Nov 8
Waxing Crescent
Nov 9
First Quarter
Nov 17
Full
Nov 25
Last Quarter
Dec 2
New

Hourly Weather History & Observations

Time (MST) Temp. Windchill Dew Point Humidity Pressure Visibility Wind Dir Wind Speed Gust Speed Precip Events Conditions
12:53 AM 48.0 °F - 30.9 °F 52% 29.61 in 10.0 mi WSW 16.1 mph - N/A   Partly Cloudy
1:49 AM 44.6 °F 37.2 °F 32.0 °F 61% 29.70 in 10.0 mi NW 17.3 mph - N/A   Overcast
1:53 AM 44.1 °F 35.9 °F 32.0 °F 63% 29.71 in 10.0 mi WNW 19.6 mph 26.5 mph N/A   Overcast
2:53 AM 43.0 °F 35.1 °F 34.0 °F 71% 29.73 in 10.0 mi WSW 17.3 mph - 0.00 in   Overcast
3:53 AM 43.0 °F 34.8 °F 30.9 °F 62% 29.74 in 10.0 mi WSW 18.4 mph 24.2 mph N/A   Mostly Cloudy
4:53 AM 42.1 °F 32.8 °F 25.0 °F 51% 29.76 in 10.0 mi West 21.9 mph 29.9 mph N/A   Partly Cloudy
5:53 AM 42.1 °F 31.7 °F 21.9 °F 45% 29.77 in 10.0 mi West 27.6 mph 38.0 mph N/A   Clear
6:53 AM 41.0 °F 31.6 °F 21.0 °F 45% 29.78 in 10.0 mi West 20.7 mph 28.8 mph N/A   Partly Cloudy
7:53 AM 42.1 °F 33.6 °F 21.9 °F 45% 29.81 in 10.0 mi West 18.4 mph - N/A   Partly Cloudy
8:53 AM 46.0 °F 37.6 °F 23.0 °F 40% 29.81 in 10.0 mi West 24.2 mph 31.1 mph N/A   Scattered Clouds
9:53 AM 48.9 °F - 21.9 °F 35% 29.83 in 10.0 mi West 24.2 mph 33.4 mph N/A   Scattered Clouds
10:53 AM 48.9 °F - 21.0 °F 33% 29.85 in 10.0 mi West 28.8 mph 35.7 mph N/A   Mostly Cloudy
11:53 AM 48.9 °F - 21.9 °F 35% 29.84 in 10.0 mi WNW 24.2 mph 35.7 mph N/A   Mostly Cloudy
12:53 PM 50.0 °F - 21.9 °F 33% 29.84 in 10.0 mi West 27.6 mph 34.5 mph N/A   Mostly Cloudy
1:53 PM 50.0 °F - 21.9 °F 33% 29.86 in 10.0 mi West 23.0 mph 33.4 mph N/A   Mostly Cloudy
2:53 PM 50.0 °F - 21.9 °F 33% 29.86 in 10.0 mi WNW 15.0 mph - N/A   Mostly Cloudy
3:53 PM 48.9 °F - 23.0 °F 36% 29.89 in 10.0 mi WNW 18.4 mph - N/A   Scattered Clouds
4:53 PM 48.0 °F - 24.1 °F 39% 29.90 in 10.0 mi WNW 17.3 mph - N/A   Scattered Clouds
5:53 PM 46.0 °F 39.9 °F 25.0 °F 44% 29.92 in 10.0 mi NW 13.8 mph - N/A   Mostly Cloudy
6:53 PM 44.1 °F 38.6 °F 25.0 °F 47% 29.94 in 10.0 mi NW 10.4 mph - N/A   Mostly Cloudy
7:53 PM 42.1 °F 35.7 °F 26.1 °F 53% 29.97 in 10.0 mi NNW 11.5 mph - N/A   Mostly Cloudy
8:53 PM 42.1 °F 35.2 °F 27.0 °F 55% 29.97 in 10.0 mi WNW 12.7 mph - N/A   Scattered Clouds
9:53 PM 41.0 °F 34.7 °F 27.0 °F 57% 29.99 in 10.0 mi NW 10.4 mph - N/A   Partly Cloudy
10:53 PM 39.9 °F 32.9 °F 28.0 °F 63% 30.02 in 10.0 mi NNW 11.5 mph - N/A   Partly Cloudy
11:53 PM 37.9 °F 29.6 °F 27.0 °F 65% 30.04 in 10.0 mi NNW 13.8 mph - N/A   Clear